| time (UTC) | temp F | wind direction | speed MPH | gust MPH | rain 1hr in | rain 24hr in | rain mn in | humidity % | barometer mb |
| 20260510091504 | 68 | 168 | 2.0 | 4.0 | 0.00 | 0.00 | 0.00 | 95 | 1010.8 |
| 20260510091004 | 68 | 166 | 2.0 | 4.0 | 0.00 | 0.00 | 0.00 | 95 | 1010.7 |
| 20260510090504 | 68 | 173 | 1.0 | 3.0 | 0.00 | 0.00 | 0.00 | 95 | 1010.7 |
| 20260510090004 | 68 | 173 | 1.0 | 3.0 | 0.00 | 0.00 | 0.00 | 95 | 1010.8 |
| 20260510085504 | 68 | 165 | 2.0 | 4.0 | 0.00 | 0.00 | 0.00 | 94 | 1010.7 |
| 20260510085003 | 68 | 165 | 2.0 | 4.0 | 0.00 | 0.00 | 0.00 | 94 | 1010.7 |
| 20260510084504 | 67 | 169 | 2.0 | 5.0 | 0.00 | 0.00 | 0.00 | 94 | 1010.6 |
| 20260510084004 | 67 | 163 | 2.0 | 6.0 | 0.00 | 0.00 | 0.00 | 94 | 1010.6 |
| 20260510083504 | 67 | 165 | 2.0 | 6.0 | 0.00 | 0.00 | 0.00 | 94 | 1010.6 |
| 20260510083004 | 67 | 162 | 2.0 | 6.0 | 0.00 | 0.00 | 0.00 | 94 | 1010.8 |
| 20260510082504 | 67 | 159 | 2.0 | 6.0 | 0.00 | 0.00 | 0.00 | 94 | 1010.8 |
| 20260510082004 | 67 | 160 | 2.0 | 4.0 | 0.00 | 0.00 | 0.00 | 94 | 1010.8 |
| 20260510081504 | 67 | 161 | 2.0 | 4.0 | 0.00 | 0.00 | 0.00 | 94 | 1010.8 |
| 20260510081004 | 67 | 166 | 2.0 | 4.0 | 0.00 | 0.00 | 0.00 | 94 | 1010.8 |
| 20260510080504 | 67 | 164 | 2.0 | 3.0 | 0.00 | 0.00 | 0.00 | 94 | 1010.9 |
| 20260510080004 | 67 | 157 | 1.0 | 3.0 | 0.00 | 0.00 | 0.00 | 94 | 1011.0 |
| 20260510075504 | 67 | 156 | 1.0 | 3.0 | 0.00 | 0.00 | 0.00 | 94 | 1011.1 |
| 20260510075004 | 67 | 158 | 1.0 | 2.0 | 0.00 | 0.00 | 0.00 | 94 | 1011.2 |
| 20260510074504 | 66 | 153 | 1.0 | 3.0 | 0.00 | 0.00 | 0.00 | 94 | 1011.2 |
| 20260510074004 | 66 | 159 | 1.0 | 3.0 | 0.00 | 0.00 | 0.00 | 93 | 1011.2 |
| 20260510073504 | 66 | 163 | 1.0 | 3.0 | 0.00 | 0.00 | 0.00 | 93 | 1011.1 |
| 20260510073004 | 66 | 151 | 1.0 | 3.0 | 0.00 | 0.00 | 0.00 | 93 | 1011.1 |
| 20260510072504 | 66 | 180 | 1.0 | 2.0 | 0.00 | 0.00 | 0.00 | 93 | 1011.0 |
| 20260510072004 | 66 | 183 | 1.0 | 2.0 | 0.00 | 0.00 | 0.00 | 93 | 1011.0 |
| 20260510071504 | 66 | 167 | 0.0 | 2.0 | 0.00 | 0.00 | 0.00 | 93 | 1010.9 |
| 20260510071004 | 66 | 151 | 0.0 | 2.0 | 0.00 | 0.00 | 0.00 | 92 | 1010.9 |
| 20260510070504 | 66 | 175 | 0.0 | 1.0 | 0.00 | 0.00 | 0.00 | 92 | 1010.9 |
| 20260510070025 | 66 | 203 | 0.0 | 2.0 | 0.00 | 0.00 | 0.00 | 92 | 1010.9 |
| 20260510065504 | 66 | 198 | 0.0 | 2.0 | 0.00 | 0.00 | 0.00 | 92 | 1010.9 |
| 20260510065003 | 66 | 116 | 0.0 | 1.0 | 0.00 | 0.00 | 0.00 | 92 | 1010.9 |
| 20260510064504 | 66 | 155 | 0.0 | 2.0 | 0.00 | 0.00 | 0.00 | 92 | 1010.9 |
| 20260510064025 | 66 | 166 | 0.0 | 2.0 | 0.00 | 0.00 | 0.00 | 92 | 1010.9 |
| 20260510063504 | 66 | 166 | 1.0 | 2.0 | 0.00 | 0.00 | 0.00 | 92 | 1010.9 |
| 20260510063004 | 66 | 161 | 1.0 | 2.0 | 0.00 | 0.00 | 0.00 | 92 | 1010.8 |
| 20260510062504 | 66 | 154 | 1.0 | 2.0 | 0.00 | 0.00 | 0.00 | 92 | 1010.8 |
| 20260510062004 | 66 | 165 | 1.0 | 2.0 | 0.00 | 0.00 | 0.00 | 92 | 1010.8 |
| 20260510061504 | 66 | 164 | 1.0 | 2.0 | 0.00 | 0.00 | 0.00 | 92 | 1010.8 |
| 20260510061004 | 66 | 165 | 1.0 | 2.0 | 0.00 | 0.00 | 0.00 | 92 | 1010.8 |
| 20260510060503 | 66 | 166 | 1.0 | 3.0 | 0.00 | 0.00 | 0.00 | 91 | 1010.8 |
| 20260510060004 | 66 | 157 | 1.0 | 3.0 | 0.00 | 0.00 | 0.00 | 91 | 1011.0 |
| 20260510055503 | 66 | 149 | 0.0 | 2.0 | 0.00 | 0.00 | 0.00 | 91 | 1011.1 |
| 20260510055004 | 67 | 136 | 0.0 | 1.0 | 0.00 | 0.00 | 0.00 | 92 | 1011.1 |
| 20260510054504 | 67 | 148 | 0.0 | 2.0 | 0.00 | 0.00 | 0.00 | 91 | 1011.2 |
| 20260510054003 | 67 | 147 | 1.0 | 2.0 | 0.00 | 0.00 | 0.00 | 91 | 1011.2 |
| 20260510053503 | 67 | 153 | 1.0 | 2.0 | 0.00 | 0.00 | 0.00 | 91 | 1011.1 |
| 20260510053003 | 67 | 177 | 0.0 | 2.0 | 0.00 | 0.00 | 0.00 | 91 | 1011.1 |
| 20260510052503 | 67 | 169 | 0.0 | 2.0 | 0.00 | 0.00 | 0.00 | 90 | 1011.1 |
| 20260510052024 | 67 | 165 | 0.0 | 2.0 | 0.00 | 0.00 | 0.00 | 90 | 1011.0 |
| 20260510051503 | 67 | 170 | 0.0 | 2.0 | 0.00 | 0.00 | 0.00 | 90 | 1010.9 |
| 20260510051003 | 67 | 177 | 1.0 | 3.0 | 0.00 | 0.00 | 0.00 | 90 | 1010.8 |
| 20260510050503 | 68 | 186 | 1.0 | 3.0 | 0.00 | 0.00 | 0.00 | 90 | 1010.8 |
| 20260510050004 | 68 | 177 | 1.0 | 3.0 | 0.00 | 0.00 | 0.00 | 90 | 1010.9 |
| 20260510045503 | 68 | 168 | 1.0 | 3.0 | 0.00 | 0.00 | 0.00 | 90 | 1010.9 |
| 20260510045004 | 68 | 166 | 1.0 | 3.0 | 0.00 | 0.00 | 0.00 | 90 | 1010.9 |
| 20260510044504 | 68 | 161 | 1.0 | 3.0 | 0.00 | 0.00 | 0.00 | 90 | 1010.9 |
| 20260510044003 | 68 | 173 | 1.0 | 3.0 | 0.00 | 0.00 | 0.00 | 90 | 1010.9 |
| 20260510043504 | 68 | 179 | 1.0 | 3.0 | 0.00 | 0.00 | 0.00 | 90 | 1010.9 |
| 20260510043004 | 68 | 179 | 1.0 | 2.0 | 0.00 | 0.00 | 0.00 | 89 | 1011.0 |
| 20260510042504 | 68 | 183 | 1.0 | 2.0 | 0.00 | 0.00 | 0.00 | 89 | 1011.0 |
| 20260510042004 | 69 | 175 | 1.0 | 4.0 | 0.00 | 0.00 | 0.00 | 89 | 1011.0 |
| 20260510041525 | 69 | 173 | 1.0 | 4.0 | 0.00 | 0.00 | 0.00 | 89 | 1011.0 |
| 20260510041003 | 69 | 181 | 1.0 | 3.0 | 0.00 | 0.00 | 0.00 | 89 | 1011.0 |
| 20260510040504 | 69 | 189 | 1.0 | 3.0 | 0.00 | 0.00 | 0.00 | 89 | 1011.0 |
| 20260510040004 | 69 | 185 | 1.0 | 4.0 | 0.00 | 0.00 | 0.00 | 89 | 1011.0 |
| 20260510035504 | 69 | 171 | 2.0 | 4.0 | 0.00 | 0.00 | 0.00 | 89 | 1011.1 |
| 20260510035003 | 70 | 166 | 2.0 | 6.0 | 0.00 | 0.00 | 0.00 | 89 | 1011.0 |
| 20260510034503 | 70 | 171 | 2.0 | 6.0 | 0.00 | 0.00 | 0.00 | 89 | 1011.2 |
| 20260510034003 | 70 | 170 | 2.0 | 7.0 | 0.00 | 0.00 | 0.00 | 88 | 1011.3 |
| 20260510033524 | 70 | 166 | 2.0 | 7.0 | 0.00 | 0.00 | 0.00 | 88 | 1011.3 |
| 20260510033025 | 70 | 173 | 2.0 | 7.0 | 0.00 | 0.00 | 0.00 | 88 | 1011.3 |
| 20260510032524 | 70 | 174 | 2.0 | 5.0 | 0.00 | 0.00 | 0.00 | 88 | 1011.3 |
| 20260510032004 | 70 | 169 | 2.0 | 7.0 | 0.00 | 0.00 | 0.00 | 88 | 1011.3 |
| 20260510031504 | 71 | 160 | 3.0 | 7.0 | 0.00 | 0.00 | 0.00 | 88 | 1011.3 |
| 20260510031003 | 71 | 153 | 3.0 | 7.0 | 0.00 | 0.00 | 0.00 | 88 | 1011.2 |
| 20260510030504 | 71 | 150 | 3.0 | 8.0 | 0.00 | 0.00 | 0.00 | 88 | 1011.1 |
| 20260510030004 | 71 | 150 | 3.0 | 8.0 | 0.00 | 0.00 | 0.00 | 88 | 1011.0 |
| 20260510025503 | 71 | 157 | 2.0 | 6.0 | 0.00 | 0.00 | 0.00 | 88 | 1010.9 |
| 20260510025024 | 71 | 157 | 2.0 | 7.0 | 0.00 | 0.00 | 0.00 | 87 | 1010.8 |
| 20260510024504 | 71 | 153 | 2.0 | 7.0 | 0.00 | 0.00 | 0.00 | 87 | 1010.8 |
| 20260510024003 | 72 | 158 | 2.0 | 8.0 | 0.00 | 0.00 | 0.00 | 87 | 1010.6 |
| 20260510023503 | 72 | 160 | 2.0 | 8.0 | 0.00 | 0.00 | 0.00 | 87 | 1010.6 |
| 20260510023004 | 72 | 159 | 1.0 | 4.0 | 0.00 | 0.00 | 0.00 | 87 | 1010.6 |
| 20260510022504 | 72 | 155 | 2.0 | 5.0 | 0.00 | 0.00 | 0.00 | 87 | 1010.5 |
| 20260510022003 | 72 | 143 | 1.0 | 5.0 | 0.00 | 0.00 | 0.00 | 86 | 1010.3 |
| 20260510021503 | 73 | 153 | 1.0 | 4.0 | 0.00 | 0.00 | 0.00 | 86 | 1010.2 |
| 20260510021004 | 73 | 158 | 1.0 | 6.0 | 0.00 | 0.00 | 0.00 | 86 | 1010.1 |
| 20260510020504 | 73 | 160 | 2.0 | 6.0 | 0.00 | 0.00 | 0.00 | 86 | 1010.1 |
| 20260510020024 | 73 | 157 | 2.0 | 4.0 | 0.00 | 0.00 | 0.00 | 85 | 1010.0 |
| 20260510015504 | 74 | 151 | 1.0 | 4.0 | 0.00 | 0.00 | 0.00 | 85 | 1010.0 |
| 20260510015003 | 74 | 157 | 1.0 | 5.0 | 0.00 | 0.00 | 0.00 | 85 | 1009.8 |
| 20260510014503 | 74 | 155 | 2.0 | 5.0 | 0.00 | 0.00 | 0.00 | 84 | 1009.7 |
| 20260510014003 | 74 | 159 | 2.0 | 6.0 | 0.00 | 0.00 | 0.00 | 84 | 1009.8 |
| 20260510013503 | 75 | 119 | 2.0 | 6.0 | 0.00 | 0.00 | 0.00 | 84 | 1009.6 |
| 20260510013003 | 75 | 139 | 2.0 | 6.0 | 0.00 | 0.00 | 0.00 | 84 | 1009.6 |
| 20260510012524 | 75 | 173 | 2.0 | 6.0 | 0.00 | 0.00 | 0.00 | 83 | 1009.4 |
| 20260510012003 | 76 | 169 | 1.0 | 5.0 | 0.00 | 0.00 | 0.00 | 82 | 1009.3 |
| 20260510011524 | 76 | 136 | 1.0 | 7.0 | 0.00 | 0.00 | 0.00 | 82 | 1009.3 |
| 20260510011003 | 76 | 140 | 2.0 | 7.0 | 0.00 | 0.00 | 0.00 | 82 | 1009.1 |
| 20260510010503 | 77 | 153 | 3.0 | 10.0 | 0.00 | 0.00 | 0.00 | 81 | 1008.8 |
| 20260510010003 | 77 | 149 | 2.0 | 10.0 | 0.00 | 0.00 | 0.00 | 81 | 1008.8 |
| 20260510005503 | 78 | 144 | 3.0 | 9.0 | 0.00 | 0.00 | 0.00 | 81 | 1008.8 |
| 20260510005003 | 78 | 146 | 3.0 | 9.0 | 0.00 | 0.00 | 0.00 | 81 | 1008.6 |
| 20260510004503 | 79 | 152 | 2.0 | 6.0 | 0.00 | 0.00 | 0.00 | 81 | 1008.5 |
| 20260510004003 | 79 | 152 | 2.0 | 6.0 | 0.00 | 0.00 | 0.00 | 82 | 1008.4 |
| 20260510003503 | 80 | 134 | 2.0 | 6.0 | 0.00 | 0.00 | 0.00 | 82 | 1008.3 |
| 20260510003004 | 81 | 88 | 2.0 | 6.0 | 0.00 | 0.00 | 0.00 | 81 | 1008.3 |
| 20260510002524 | 81 | 44 | 2.0 | 7.0 | 0.00 | 0.00 | 0.00 | 80 | 1008.3 |
| 20260510002003 | 82 | 33 | 1.0 | 7.0 | 0.00 | 0.00 | 0.00 | 81 | 1008.2 |
| 20260510001503 | 82 | 33 | 0.0 | 2.0 | 0.00 | 0.00 | 0.00 | 82 | 1008.0 |
| 20260510001003 | 82 | 42 | 1.0 | 2.0 | 0.00 | 0.00 | 0.00 | 82 | 1007.9 |
| 20260510000503 | 82 | 39 | 1.0 | 2.0 | 0.00 | 0.00 | 0.00 | 82 | 1007.9 |
| 20260510000024 | 82 | 35 | 0.0 | 2.0 | 0.00 | 0.00 | 0.00 | 82 | 1007.8 |
| 20260509235503 | 82 | 39 | 1.0 | 2.0 | 0.00 | 0.00 | 0.00 | 82 | 1007.8 |
| 20260509235003 | 82 | 33 | 1.0 | 2.0 | 0.00 | 0.00 | 0.00 | 82 | 1007.8 |
| 20260509234503 | 82 | 32 | 1.0 | 2.0 | 0.00 | 0.00 | 0.00 | 82 | 1007.8 |
| 20260509234003 | 82 | 33 | 1.0 | 2.0 | 0.00 | 0.00 | 0.00 | 81 | 1007.7 |
| 20260509233503 | 82 | 30 | 0.0 | 1.0 | 0.00 | 0.00 | 0.00 | 82 | 1007.7 |
| 20260509233003 | 82 | 26 | 0.0 | 1.0 | 0.00 | 0.00 | 0.00 | 82 | 1007.8 |
| 20260509232503 | 82 | 31 | 1.0 | 2.0 | 0.00 | 0.00 | 0.00 | 81 | 1007.7 |
| 20260509232003 | 82 | 34 | 1.0 | 2.0 | 0.00 | 0.00 | 0.00 | 81 | 1007.6 |
| 20260509231503 | 83 | 32 | 1.0 | 1.0 | 0.00 | 0.00 | 0.00 | 80 | 1007.6 |
| 20260509231003 | 83 | 29 | 1.0 | 2.0 | 0.00 | 0.00 | 0.00 | 81 | 1007.5 |
| 20260509230504 | 83 | 33 | 1.0 | 2.0 | 0.00 | 0.00 | 0.00 | 80 | 1007.3 |
| 20260509230004 | 83 | 43 | 1.0 | 2.0 | 0.00 | 0.00 | 0.00 | 79 | 1007.3 |
| 20260509225525 | 83 | 48 | 1.0 | 2.0 | 0.00 | 0.00 | 0.00 | 80 | 1007.2 |
| 20260509225004 | 84 | 44 | 0.0 | 2.0 | 0.00 | 0.00 | 0.00 | 79 | 1007.1 |
| 20260509224504 | 84 | 25 | 0.0 | 2.0 | 0.00 | 0.00 | 0.00 | 80 | 1007.1 |
| 20260509224004 | 84 | 36 | 1.0 | 2.0 | 0.00 | 0.00 | 0.00 | 80 | 1007.1 |
| 20260509223504 | 85 | 60 | 1.0 | 2.0 | 0.00 | 0.00 | 0.00 | 78 | 1007.1 |
| 20260509223004 | 84 | 51 | 1.0 | 2.0 | 0.00 | 0.00 | 0.00 | 76 | 1007.1 |
| 20260509222504 | 84 | 42 | 1.0 | 2.0 | 0.00 | 0.00 | 0.00 | 76 | 1007.1 |
| 20260509222004 | 85 | 38 | 0.0 | 2.0 | 0.00 | 0.00 | 0.00 | 75 | 1007.1 |
| 20260509221504 | 85 | 26 | 1.0 | 2.0 | 0.00 | 0.00 | 0.00 | 75 | 1007.1 |
| 20260509221004 | 85 | 19 | 1.0 | 2.0 | 0.00 | 0.00 | 0.00 | 73 | 1007.0 |
| 20260509220504 | 86 | 359 | 1.0 | 2.0 | 0.00 | 0.00 | 0.00 | 72 | 1007.0 |
| 20260509220004 | 86 | 342 | 1.0 | 2.0 | 0.00 | 0.00 | 0.00 | 77 | 1007.0 |
| 20260509215504 | 86 | 20 | 1.0 | 3.0 | 0.00 | 0.00 | 0.00 | 77 | 1007.0 |
| 20260509215004 | 86 | 36 | 1.0 | 3.0 | 0.00 | 0.00 | 0.00 | 76 | 1007.0 |
| 20260509214504 | 86 | 349 | 1.0 | 3.0 | 0.00 | 0.00 | 0.00 | 76 | 1007.0 |
| 20260509214004 | 86 | 5 | 1.0 | 3.0 | 0.00 | 0.00 | 0.00 | 75 | 1007.0 |
| 20260509213504 | 88 | 11 | 1.0 | 3.0 | 0.00 | 0.00 | 0.00 | 71 | 1007.1 |
| 20260509213004 | 89 | 15 | 1.0 | 3.0 | 0.00 | 0.00 | 0.00 | 69 | 1007.1 |
| 20260509212525 | 89 | 348 | 1.0 | 3.0 | 0.00 | 0.00 | 0.00 | 71 | 1007.3 |
| 20260509212004 | 89 | 270 | 1.0 | 3.0 | 0.00 | 0.00 | 0.00 | 66 | 1007.3 |
| 20260509211504 | 89 | 47 | 2.0 | 4.0 | 0.00 | 0.00 | 0.00 | 70 | 1007.4 |
| 20260509211004 | 89 | 38 | 2.0 | 4.0 | 0.00 | 0.00 | 0.00 | 67 | 1007.4 |
| 20260509210504 | 88 | 19 | 1.0 | 4.0 | 0.00 | 0.00 | 0.00 | 67 | 1007.5 |
| 20260509210004 | 89 | 338 | 1.0 | 2.0 | 0.00 | 0.00 | 0.00 | 71 | 1007.7 |
| 20260509205504 | 88 | 219 | 1.0 | 3.0 | 0.00 | 0.00 | 0.00 | 71 | 1007.7 |
| 20260509205004 | 89 | 260 | 1.0 | 3.0 | 0.00 | 0.00 | 0.00 | 67 | 1007.7 |
| 20260509204504 | 89 | 336 | 1.0 | 3.0 | 0.00 | 0.00 | 0.00 | 72 | 1007.8 |
| 20260509204004 | 90 | 232 | 1.0 | 3.0 | 0.00 | 0.00 | 0.00 | 70 | 1007.9 |
| 20260509203504 | 89 | 228 | 1.0 | 3.0 | 0.00 | 0.00 | 0.00 | 68 | 1008.0 |
| 20260509203004 | 88 | 348 | 1.0 | 3.0 | 0.00 | 0.00 | 0.00 | 69 | 1008.0 |
| 20260509202504 | 88 | 329 | 1.0 | 3.0 | 0.00 | 0.00 | 0.00 | 72 | 1008.1 |
| 20260509202025 | 89 | 184 | 2.0 | 3.0 | 0.00 | 0.00 | 0.00 | 67 | 1008.2 |
| 20260509201504 | 88 | 154 | 1.0 | 3.0 | 0.00 | 0.00 | 0.00 | 68 | 1008.2 |
| 20260509201004 | 86 | 24 | 1.0 | 3.0 | 0.00 | 0.00 | 0.00 | 75 | 1008.3 |
| 20260509200504 | 85 | 351 | 1.0 | 2.0 | 0.00 | 0.00 | 0.00 | 77 | 1008.3 |
| 20260509200025 | 86 | 316 | 1.0 | 3.0 | 0.00 | 0.00 | 0.00 | 72 | 1008.4 |
| 20260509195525 | 86 | 38 | 1.0 | 4.0 | 0.00 | 0.00 | 0.00 | 70 | 1008.5 |
| 20260509195004 | 87 | 40 | 1.0 | 4.0 | 0.00 | 0.00 | 0.00 | 73 | 1008.6 |
| 20260509194504 | 86 | 34 | 1.0 | 4.0 | 0.00 | 0.00 | 0.00 | 75 | 1008.7 |
| 20260509194004 | 86 | 204 | 2.0 | 6.0 | 0.00 | 0.00 | 0.00 | 73 | 1008.7 |
| 20260509193504 | 87 | 204 | 2.0 | 6.0 | 0.00 | 0.00 | 0.00 | 71 | 1008.7 |
| 20260509193004 | 86 | 18 | 1.0 | 4.0 | 0.00 | 0.00 | 0.00 | 73 | 1008.6 |
| 20260509192504 | 86 | 2 | 1.0 | 4.0 | 0.00 | 0.00 | 0.00 | 77 | 1008.7 |
| 20260509192004 | 87 | 216 | 1.0 | 3.0 | 0.00 | 0.00 | 0.00 | 73 | 1008.8 |
| 20260509191504 | 87 | 192 | 1.0 | 3.0 | 0.00 | 0.00 | 0.00 | 73 | 1008.8 |
| 20260509191004 | 86 | 214 | 1.0 | 3.0 | 0.00 | 0.00 | 0.00 | 75 | 1008.8 |
| 20260509190504 | 86 | 200 | 2.0 | 4.0 | 0.00 | 0.00 | 0.00 | 73 | 1008.9 |
| 20260509190004 | 84 | 188 | 1.0 | 4.0 | 0.00 | 0.00 | 0.00 | 77 | 1009.0 |
| 20260509185504 | 84 | 30 | 1.0 | 3.0 | 0.00 | 0.00 | 0.00 | 79 | 1009.0 |
| 20260509185025 | 83 | 5 | 1.0 | 3.0 | 0.00 | 0.00 | 0.00 | 77 | 1009.0 |
| 20260509184504 | 84 | 316 | 1.0 | 3.0 | 0.00 | 0.00 | 0.00 | 80 | 1009.1 |
| 20260509184004 | 84 | 291 | 1.0 | 3.0 | 0.00 | 0.00 | 0.00 | 79 | 1009.1 |
| 20260509183525 | 84 | 339 | 1.0 | 3.0 | 0.00 | 0.00 | 0.00 | 78 | 1009.2 |
| 20260509183004 | 83 | 13 | 1.0 | 3.0 | 0.00 | 0.00 | 0.00 | 78 | 1009.2 |
| 20260509182504 | 83 | 315 | 1.0 | 3.0 | 0.00 | 0.00 | 0.00 | 79 | 1009.2 |
| 20260509182004 | 84 | 204 | 2.0 | 4.0 | 0.00 | 0.00 | 0.00 | 78 | 1009.3 |
| 20260509181525 | 85 | 187 | 2.0 | 5.0 | 0.00 | 0.00 | 0.00 | 75 | 1009.4 |
| 20260509181004 | 86 | 165 | 3.0 | 5.0 | 0.00 | 0.00 | 0.00 | 75 | 1009.5 |
| 20260509180525 | 85 | 156 | 2.0 | 5.0 | 0.00 | 0.00 | 0.00 | 76 | 1009.4 |
| 20260509180004 | 84 | 177 | 2.0 | 5.0 | 0.00 | 0.00 | 0.00 | 77 | 1009.6 |
| 20260509175525 | 84 | 212 | 1.0 | 3.0 | 0.00 | 0.00 | 0.00 | 78 | 1009.7 |
| 20260509175004 | 82 | 349 | 1.0 | 3.0 | 0.00 | 0.00 | 0.00 | 82 | 1009.8 |
| 20260509174504 | 81 | 244 | 1.0 | 4.0 | 0.00 | 0.00 | 0.00 | 83 | 1010.0 |
| 20260509174004 | 81 | 213 | 1.0 | 4.0 | 0.00 | 0.00 | 0.00 | 83 | 1010.0 |
| 20260509173504 | 81 | 224 | 1.0 | 3.0 | 0.00 | 0.00 | 0.00 | 85 | 1010.0 |
| 20260509173004 | 80 | 259 | 1.0 | 3.0 | 0.00 | 0.00 | 0.00 | 87 | 1009.9 |
| 20260509172504 | 78 | 337 | 1.0 | 2.0 | 0.00 | 0.00 | 0.00 | 90 | 1010.1 |
| 20260509172004 | 78 | 22 | 0.0 | 2.0 | 0.00 | 0.00 | 0.00 | 90 | 1010.1 |
| 20260509171504 | 78 | 10 | 0.0 | 2.0 | 0.00 | 0.00 | 0.00 | 90 | 1010.1 |
| 20260509171004 | 78 | 342 | 0.0 | 2.0 | 0.00 | 0.00 | 0.00 | 90 | 1010.3 |
| 20260509170504 | 78 | 353 | 1.0 | 2.0 | 0.00 | 0.00 | 0.00 | 90 | 1010.3 |
| 20260509170025 | 79 | 359 | 1.0 | 2.0 | 0.00 | 0.00 | 0.00 | 89 | 1010.3 |
| 20260509165504 | 79 | 174 | 1.0 | 2.0 | 0.00 | 0.00 | 0.00 | 88 | 1010.4 |
| 20260509165004 | 79 | 173 | 1.0 | 2.0 | 0.00 | 0.00 | 0.00 | 88 | 1010.4 |
| 20260509164525 | 79 | 159 | 1.0 | 3.0 | 0.00 | 0.00 | 0.00 | 90 | 1010.6 |
| 20260509164004 | 78 | 186 | 1.0 | 3.0 | 0.00 | 0.00 | 0.00 | 90 | 1010.6 |
| 20260509163504 | 78 | 183 | 1.0 | 3.0 | 0.00 | 0.02 | 0.00 | 91 | 1010.7 |
| 20260509163004 | 78 | 182 | 1.0 | 3.0 | 0.00 | 0.18 | 0.00 | 93 | 1010.7 |
| 20260509162504 | 77 | 177 | 1.0 | 3.0 | 0.00 | 0.27 | 0.00 | 95 | 1010.6 |
| 20260509162004 | 77 | 181 | 1.0 | 4.0 | 0.00 | 0.28 | 0.00 | 95 | 1010.6 |
| 20260509161504 | 76 | 183 | 1.0 | 4.0 | 0.00 | 0.29 | 0.00 | 96 | 1010.7 |
| 20260509161025 | 76 | 162 | 2.0 | 3.0 | 0.00 | 0.29 | 0.00 | 97 | 1010.6 |
| 20260509160504 | 75 | 153 | 2.0 | 3.0 | 0.00 | 0.29 | 0.00 | 97 | 1010.6 |
| 20260509160004 | 75 | 155 | 1.0 | 3.0 | 0.00 | 0.29 | 0.00 | 97 | 1010.7 |
| 20260509155504 | 75 | 184 | 1.0 | 4.0 | 0.00 | 0.29 | 0.00 | 97 | 1010.5 |
| 20260509155004 | 75 | 180 | 2.0 | 4.0 | 0.00 | 0.30 | 0.00 | 97 | 1010.4 |
| 20260509154504 | 75 | 165 | 1.0 | 4.0 | 0.00 | 0.33 | 0.00 | 98 | 1010.3 |
| 20260509154025 | 74 | 156 | 1.0 | 2.0 | 0.00 | 0.37 | 0.00 | 97 | 1010.2 |
| 20260509153504 | 74 | 313 | 1.0 | 2.0 | 0.00 | 0.38 | 0.00 | 97 | 1010.4 |
| 20260509153004 | 74 | 214 | 1.0 | 4.0 | 0.00 | 0.39 | 0.00 | 97 | 1010.2 |
| 20260509152504 | 75 | 176 | 2.0 | 4.0 | 0.00 | 0.46 | 0.00 | 98 | 1009.9 |
| 20260509152025 | 74 | 161 | 2.0 | 4.0 | 0.00 | 0.46 | 0.00 | 98 | 1009.7 |
| 20260509151504 | 74 | 160 | 1.0 | 4.0 | 0.00 | 0.46 | 0.00 | 97 | 1009.8 |
| 20260509151025 | 73 | 112 | 1.0 | 2.0 | 0.00 | 0.47 | 0.00 | 97 | 1010.0 |
| 20260509150504 | 73 | 30 | 1.0 | 2.0 | 0.00 | 0.50 | 0.00 | 97 | 1010.1 |
| 20260509150004 | 73 | 359 | 0.0 | 2.0 | 0.00 | 0.53 | 0.00 | 97 | 1010.2 |
| 20260509145504 | 73 | 317 | 0.0 | 2.0 | 0.00 | 0.60 | 0.00 | 97 | 1010.1 |
| 20260509145004 | 73 | 317 | 0.0 | 2.0 | 0.00 | 0.62 | 0.00 | 97 | 1010.1 |
| 20260509144504 | 73 | 339 | 0.0 | 1.0 | 0.00 | 0.62 | 0.00 | 97 | 1010.1 |
| 20260509144004 | 73 | 20 | 0.0 | 1.0 | 0.00 | 0.62 | 0.00 | 97 | 1010.0 |
| 20260509143504 | 73 | 25 | 0.0 | 2.0 | 0.00 | 0.62 | 0.00 | 97 | 1009.9 |
| 20260509143004 | 73 | 13 | 1.0 | 2.0 | 0.00 | 0.62 | 0.00 | 97 | 1010.0 |
| 20260509142504 | 73 | 1 | 1.0 | 2.0 | 0.00 | 0.62 | 0.00 | 97 | 1010.1 |
| 20260509142004 | 72 | 328 | 0.0 | 2.0 | 0.00 | 0.62 | 0.00 | 97 | 1010.2 |
| 20260509141504 | 72 | 340 | 0.0 | 1.0 | 0.00 | 0.62 | 0.00 | 97 | 1010.3 |
| 20260509141004 | 72 | 314 | 0.0 | 1.0 | 0.00 | 0.62 | 0.00 | 97 | 1010.3 |
| 20260509140504 | 72 | 247 | 0.0 | 1.0 | 0.00 | 0.62 | 0.00 | 97 | 1010.4 |
| 20260509140005 | 72 | 330 | 0.0 | 2.0 | 0.00 | 0.62 | 0.00 | 97 | 1010.3 |
| 20260509135504 | 72 | 342 | 0.0 | 2.0 | 0.00 | 0.62 | 0.00 | 97 | 1010.3 |
| 20260509135004 | 72 | 22 | 0.0 | 1.0 | 0.00 | 0.62 | 0.00 | 97 | 1010.4 |
| 20260509134525 | 72 | 126 | 0.0 | 1.0 | 0.00 | 0.62 | 0.00 | 97 | 1010.4 |
| 20260509134004 | 72 | 106 | 0.0 | 1.0 | 0.00 | 0.62 | 0.00 | 97 | 1010.4 |
| 20260509133504 | 72 | 104 | 0.0 | 1.0 | 0.00 | 0.65 | 0.00 | 97 | 1010.5 |
| 20260509133004 | 72 | 98 | 0.0 | 2.0 | 0.00 | 0.72 | 0.00 | 97 | 1010.5 |
| 20260509132504 | 72 | 128 | 1.0 | 2.0 | 0.00 | 0.75 | 0.00 | 97 | 1010.3 |
| 20260509132004 | 72 | 167 | 0.0 | 2.0 | 0.00 | 0.77 | 0.00 | 97 | 1010.5 |
| 20260509131504 | 72 | 266 | 0.0 | 1.0 | 0.00 | 0.77 | 0.00 | 97 | 1010.5 |
| 20260509131004 | 72 | 341 | 0.0 | 2.0 | 0.00 | 0.77 | 0.00 | 97 | 1010.4 |
| 20260509130504 | 72 | 151 | 0.0 | 2.0 | 0.00 | 0.77 | 0.00 | 97 | 1010.3 |
| 20260509130004 | 72 | 163 | 1.0 | 2.0 | 0.00 | 0.77 | 0.00 | 97 | 1010.0 |
| 20260509125504 | 72 | 161 | 1.0 | 3.0 | 0.00 | 0.77 | 0.00 | 97 | 1010.0 |
| 20260509125004 | 72 | 160 | 1.0 | 3.0 | 0.00 | 0.77 | 0.00 | 97 | 1010.0 |
| 20260509124504 | 71 | 340 | 0.0 | 1.0 | 0.00 | 0.77 | 0.00 | 97 | 1010.1 |
| 20260509124004 | 71 | 79 | 0.0 | 2.0 | 0.00 | 0.77 | 0.00 | 97 | 1010.0 |
| 20260509123525 | 71 | 146 | 1.0 | 3.0 | 0.00 | 0.77 | 0.00 | 97 | 1009.7 |
| 20260509123004 | 71 | 148 | 1.0 | 3.0 | 0.00 | 0.77 | 0.00 | 97 | 1009.7 |
| 20260509122504 | 71 | 153 | 1.0 | 2.0 | 0.00 | 0.77 | 0.00 | 97 | 1009.8 |
| 20260509122004 | 71 | 164 | 1.0 | 2.0 | 0.00 | 0.77 | 0.00 | 97 | 1009.7 |
| 20260509121504 | 71 | 177 | 1.0 | 2.0 | 0.00 | 0.77 | 0.00 | 97 | 1009.8 |
| 20260509121004 | 71 | 180 | 0.0 | 1.0 | 0.00 | 0.77 | 0.00 | 97 | 1009.9 |
| 20260509120504 | 71 | 166 | 0.0 | 1.0 | 0.00 | 0.77 | 0.00 | 97 | 1009.9 |
| 20260509120004 | 71 | 158 | 0.0 | 2.0 | 0.00 | 0.77 | 0.00 | 97 | 1009.9 |
| 20260509115504 | 71 | 154 | 0.0 | 2.0 | 0.00 | 0.77 | 0.00 | 97 | 1009.9 |
| 20260509115004 | 71 | 356 | 0.0 | 1.0 | 0.00 | 0.77 | 0.00 | 97 | 1009.9 |
| 20260509114504 | 71 | 351 | 0.0 | 2.0 | 0.00 | 0.77 | 0.00 | 97 | 1009.8 |
| 20260509114004 | 71 | 357 | 0.0 | 2.0 | 0.00 | 0.77 | 0.00 | 97 | 1009.6 |
| 20260509113504 | 71 | 24 | 0.0 | 1.0 | 0.00 | 0.77 | 0.00 | 97 | 1009.7 |
| 20260509113004 | 71 | 204 | 0.0 | 1.0 | 0.00 | 0.77 | 0.00 | 97 | 1009.8 |
| 20260509112504 | 71 | 3 | 0.0 | 1.0 | 0.00 | 0.77 | 0.00 | 97 | 1009.7 |
| 20260509112004 | 71 | 10 | 0.0 | 1.0 | 0.00 | 0.77 | 0.00 | 97 | 1009.8 |
| 20260509111504 | 71 | 341 | 0.0 | 1.0 | 0.00 | 0.77 | 0.00 | 96 | 1009.9 |
| 20260509111004 | 71 | 352 | 0.0 | 2.0 | 0.00 | 0.77 | 0.00 | 96 | 1009.9 |
| 20260509110525 | 71 | 358 | 1.0 | 2.0 | 0.00 | 0.77 | 0.00 | 96 | 1009.7 |
| 20260509110025 | 71 | 353 | 1.0 | 2.0 | 0.00 | 0.77 | 0.00 | 96 | 1009.7 |
| 20260509105504 | 71 | 341 | 0.0 | 1.0 | 0.00 | 0.77 | 0.00 | 96 | 1009.6 |
| 20260509105004 | 71 | 353 | 0.0 | 2.0 | 0.00 | 0.77 | 0.00 | 96 | 1009.6 |
| 20260509104504 | 71 | 342 | 1.0 | 2.0 | 0.00 | 0.77 | 0.00 | 96 | 1009.4 |
| 20260509104004 | 71 | 343 | 1.0 | 2.0 | 0.00 | 0.77 | 0.00 | 96 | 1009.4 |
| 20260509103504 | 71 | 186 | 1.0 | 2.0 | 0.00 | 0.77 | 0.00 | 96 | 1009.2 |
| 20260509103004 | 71 | 169 | 1.0 | 3.0 | 0.00 | 0.77 | 0.00 | 96 | 1009.0 |
| 20260509102504 | 71 | 153 | 1.0 | 3.0 | 0.00 | 0.77 | 0.00 | 96 | 1008.9 |
| 20260509102004 | 71 | 141 | 1.0 | 3.0 | 0.00 | 0.77 | 0.00 | 96 | 1009.0 |
| 20260509101504 | 71 | 137 | 0.0 | 2.0 | 0.00 | 0.77 | 0.00 | 96 | 1009.1 |
| 20260509101025 | 71 | 151 | 1.0 | 2.0 | 0.00 | 0.77 | 0.00 | 96 | 1009.2 |
| 20260509100504 | 71 | 159 | 0.0 | 1.0 | 0.00 | 0.77 | 0.00 | 96 | 1009.3 |
| 20260509100005 | 71 | 154 | 0.0 | 1.0 | 0.00 | 0.77 | 0.00 | 96 | 1009.3 |
| 20260509095503 | 71 | 350 | 0.0 | 1.0 | 0.00 | 0.77 | 0.00 | 96 | 1009.3 |
| 20260509095004 | 71 | 60 | 0.0 | 1.0 | 0.00 | 0.77 | 0.00 | 96 | 1009.3 |
| 20260509094504 | 71 | 101 | 0.0 | 1.0 | 0.00 | 0.77 | 0.00 | 96 | 1009.2 |
| 20260509094025 | 71 | 144 | 0.0 | 1.0 | 0.00 | 0.77 | 0.00 | 96 | 1009.3 |
| 20260509093504 | 71 | 150 | 0.0 | 1.0 | 0.00 | 0.77 | 0.00 | 95 | 1009.3 |
| 20260509093004 | 71 | 256 | 0.0 | 1.0 | 0.00 | 0.77 | 0.00 | 95 | 1009.5 |
| 20260509092504 | 71 | 335 | 0.0 | 1.0 | 0.00 | 0.77 | 0.00 | 95 | 1009.5 |
| 20260509092004 | 71 | 333 | 0.0 | 1.0 | 0.00 | 0.77 | 0.00 | 95 | 1009.6 |